Location: The Saddle
(36.8333°N, 80.3417°W)
Time: 08:36:43
(UTC-05:00)

Vanguard 2 Rocket - Pass Details

Date: 11 December 2023
Orbit: 555 x 3309 km, 32.9° (Epoch: 02 March)

Event Time Altitude Azimuth Distance (km) Brightness Sun altitude
Rises 19:31:53 0° 284° (WNW) 7,163 12.5 -28.5°
Reaches altitude 10° 19:37:08 10° 277° (W) 6,245 12.0 -29.6°
Maximum altitude 19:54:19 37° 220° (SW) 4,119 10.4 -33.0°
Drops below altitude 10° 20:08:12 10° 159° (SSE) 5,033 10.5 -35.8°
Enters shadow 20:11:30 - 152° (SSE) 5,606 10.7 -36.4°
Sets 20:11:57 0° 151° (SSE) 5,691 - -36.5°
